York, PA

4:23 PM EDT on April 28, 2017 (GMT -0400)
York

Weather History for KTHV - September, 2013

Change the Weather History Date:

Wednesday, September 4, 2013

  Actual Average Record
Temperature  
Mean Temperature 66 °F -  
Max Temperature 81 °F 0 °F 91 °F (2015)
Min Temperature 52 °F - 44 °F (1997)
Cooling Degree Days 2    
Growing Degree Days 16 (Base 50)    
Moisture  
Dew Point 53 °F    
Average Humidity 64    
Maximum Humidity 93    
Minimum Humidity 38    
Precipitation  
Precipitation 0.00 in - - ()
Sea Level Pressure  
Sea Level Pressure 30.04 in    
Wind  
Wind Speed 2 mph (West)    
Max Wind Speed 8 mph    
Max Gust Speed -    
Visibility 10 miles    
Events      
Averages and records for this station are not official NWS values.
T = Trace of Precipitation, MM = Missing Value Source: NWS Daily Summary

Daily Weather History Graph

Daily Weather History Graph

Search for Another Location

Airport or City:

Trip Planner

Search our weather history database for the weather conditions in past years. The results will help you decide how hot, cold, wet, or windy it might be!

Date:

Astronomy

Sep. 04, 2013 Rise Set
Actual Time 6:38 AM EDT 7:33 PM EDT
Civil Twilight 6:10 AM EDT 8:01 PM EDT
Nautical Twilight 5:37 AM EDT 8:33 PM EDT
Astronomical Twilight 5:03 AM EDT 9:07 PM EDT
Moon 5:48 AM EDT (9/4) 6:52 PM EDT (9/4)
Length of Visible Light 13h 50m
Length of Day
12h 55m
Waning Crescent, 1% of the Moon is Illuminated
Sep 4
Waning Crescent
Sep 5
New
Sep 12
First Quarter
Sep 19
Full
Sep 26
Last Quarter

Hourly Weather History & Observations

Time (EDT) Temp. Heat Index Dew Point Humidity Pressure Visibility Wind Dir Wind Speed Gust Speed Precip Events Conditions
12:53 AM 59.0 °F - 52.0 °F 78% 29.98 in 10.0 mi Calm Calm - N/A   Clear
1:53 AM 55.9 °F - 51.1 °F 84% 29.99 in 10.0 mi Calm Calm - N/A   Clear
2:53 AM 55.0 °F - 52.0 °F 89% 29.99 in 10.0 mi Calm Calm - N/A   Clear
3:53 AM 54.0 °F - 51.1 °F 90% 30.01 in 10.0 mi Calm Calm - N/A   Clear
4:53 AM 53.1 °F - 50.0 °F 89% 30.02 in 10.0 mi Calm Calm - N/A   Clear
5:53 AM 53.1 °F - 50.0 °F 89% 30.04 in 10.0 mi Calm Calm - N/A   Clear
6:53 AM 52.0 °F - 50.0 °F 93% 30.06 in 10.0 mi Calm Calm - N/A   Clear
7:53 AM 60.1 °F - 55.0 °F 83% 30.08 in 10.0 mi Calm Calm - N/A   Clear
8:53 AM 66.0 °F - 55.9 °F 70% 30.09 in 10.0 mi Variable 3.5 mph - N/A   Clear
9:53 AM 69.1 °F - 55.0 °F 61% 30.09 in 10.0 mi WNW 5.8 mph - N/A   Clear
10:53 AM 72.0 °F - 53.1 °F 51% 30.09 in 10.0 mi WNW 4.6 mph - N/A   Clear
11:53 AM 73.9 °F - 54.0 °F 50% 30.08 in 10.0 mi Variable 3.5 mph - N/A   Clear
12:53 PM 77.0 °F - 53.1 °F 43% 30.06 in 10.0 mi Variable 4.6 mph - N/A   Clear
1:53 PM 78.1 °F - 54.0 °F 43% 30.06 in 10.0 mi West 8.1 mph - N/A   Clear
2:53 PM 79.0 °F - 54.0 °F 42% 30.04 in 10.0 mi Calm Calm - N/A   Clear
3:53 PM 80.1 °F 79.9 °F 53.1 °F 39% 30.02 in 10.0 mi West 4.6 mph - N/A   Clear
4:53 PM 81.0 °F 80.4 °F 53.1 °F 38% 30.02 in 10.0 mi West 5.8 mph - N/A   Clear
5:53 PM 80.1 °F 80.0 °F 54.0 °F 40% 30.01 in 10.0 mi Variable 3.5 mph - N/A   Clear
6:53 PM 75.9 °F - 53.1 °F 45% 30.01 in 10.0 mi SSW 3.5 mph - N/A   Clear
7:53 PM 70.0 °F - 53.1 °F 55% 30.01 in 10.0 mi SW 5.8 mph - N/A   Clear
8:53 PM 72.0 °F - 50.0 °F 46% 30.02 in 10.0 mi SW 5.8 mph - N/A   Clear
9:53 PM 66.0 °F - 53.1 °F 63% 30.04 in 10.0 mi West 4.6 mph - N/A   Clear
10:53 PM 62.1 °F - 53.1 °F 72% 30.06 in 10.0 mi NW 5.8 mph - N/A   Clear
11:53 PM 60.1 °F - 54.0 °F 80% 30.05 in 10.0 mi WNW 4.6 mph - N/A   Clear